Satellite: CP4
Catalog number: 31122
Epoch time:      07220.65870266
Element set:     104
Inclination:      098.0825 deg
RA of node:       292.2341 deg
Eccentricity:    0.0085068
Arg of perigee:   221.9933 deg
Mean anomaly:     137.4709 deg
Mean motion:   14.55024798 rev/day
Decay rate:       5.96e-06 rev/day^2
Epoch rev:            1648
Checksum:              304

Satellite: CP3
Catalog number: 31128
Epoch time:      07220.69905951
Element set:      98
Inclination:      098.0818 deg
RA of node:       291.7110 deg
Eccentricity:    0.0102202
Arg of perigee:   223.0485 deg
Mean anomaly:     136.2685 deg
Mean motion:   14.51853842 rev/day
Decay rate:       -4.8e-07 rev/day^2
Epoch rev:            1644
Checksum:              286

Satellite: LIBERT
Catalog number: 31129
Epoch time:      07221.65709792
Element set:     284
Inclination:      098.0789 deg
RA of node:       292.6402 deg
Eccentricity:    0.0101394
Arg of perigee:   220.5942 deg
Mean anomaly:     138.7631 deg
Mean motion:   14.51947741 rev/day
Decay rate:       3.83e-06 rev/day^2
Epoch rev:            1656
Checksum:              308

/EX
SB KEPS @ AMSAT  $ORB07221.W
Orbital Elements  07221.WEATHER

HR AMSAT ORBITAL ELEMENTS FOR WEATHER SATELLITES
FROM WA5QGD FORT WORTH,TX August 9, 2007
Send Subscribe/unsubscribe to KEPS at 
http://www.amsat.org/mailman/listinfo/keps
BID: ORB07221.W
TO ALL RADIO AMATEURS BT

Satellite: NOAA-10
Catalog number: 16969
Epoch time:      07220.59819599
Element set:    0761
Inclination:      098.7455 deg
RA of node:       237.8092 deg
Eccentricity:    0.0012899
Arg of perigee:   018.9323 deg
Mean anomaly:     341.2337 deg
Mean motion:   14.27330337 rev/day
Decay rate:       -8.8e-07 rev/day^2
Epoch rev:           08670
Checksum:              341

Satellite: NOAA-11
Catalog number: 19531
Epoch time:      07220.81683481
Element set:    0778
Inclination:      098.8114 deg
RA of node:       309.3276 deg
Eccentricity:    0.0010887
Arg of perigee:   239.3248 deg
Mean anomaly:     120.6862 deg
Mean motion:   14.14847048 rev/day
Decay rate:      -1.62e-06 rev/day^2
Epoch rev:           97359
Checksum:              328

Satellite: NOAA-12
Catalog number: 21263
Epoch time:      07220.94432255
Element set:    0275
Inclination:      098.7547 deg
RA of node:       218.1039 deg
Eccentricity:    0.0012184
Arg of perigee:   318.5584 deg
Mean anomaly:     041.4664 deg
Mean motion:   14.25552002 rev/day
Decay rate:        8.5e-07 rev/day^2
Epoch rev:           84376
Checksum:              293

Satellite: MET-3/5
Catalog number: 21655
Epoch time:      07221.80694374
Element set:     304
Inclination:      082.5591 deg
RA of node:       325.0619 deg
Eccentricity:    0.0014663
Arg of perigee:   075.5119 deg
Mean anomaly:     284.7630 deg
Mean motion:   13.17011425 rev/day
Decay rate:        5.1e-07 rev/day^2
Epoch rev:           76846
Checksum:              294

Satellite: MET-2/21
Catalog number: 22782
Epoch time:      07220.79744958
Element set:     899
Inclination:      082.5499 deg
RA of node:       000.1730 deg
Eccentricity:    0.0024106
Arg of perigee:   088.8411 deg
Mean anomaly:     271.5525 deg
Mean motion:   13.83618391 rev/day
Decay rate:      .00000000 rev/day^2
Epoch rev:           70379
Checksum:              306

Satellite: OKEAN-4
Catalog number: 23317
Epoch time:      07221.77088822
Element set:     339
Inclination:      082.5369 deg
RA of node:       246.5410 deg
Eccentricity:    0.0024149
Arg of perigee:   077.4316 deg
Mean anomaly:     282.9647 deg
Mean motion:   14.82523295 rev/day
Decay rate:        9.9e-07 rev/day^2
Epoch rev:           69199
Checksum:              334

Satellite: NOAA-14
Catalog number: 23455
Epoch time:      07220.87726250
Element set:    0761
Inclination:      098.9870 deg
RA of node:       287.3364 deg
Eccentricity:    0.0008675
Arg of perigee:   314.7582 deg
Mean anomaly:     045.2862 deg
Mean motion:   14.13724459 rev/day
Decay rate:       1.77e-06 rev/day^2
Epoch rev:           65008
Checksum:              327

Satellite: SICH-1
Catalog number: 23657
Epoch time:      07220.76774428
Element set:    0139
Inclination:      082.5268 deg
RA of node:       028.4217 deg
Eccentricity:    0.0025803
Arg of perigee:   071.1621 deg
Mean anomaly:     289.2380 deg
Mean motion:   14.81504724 rev/day
Decay rate:       -2.2e-07 rev/day^2
Epoch rev:           64381
Checksum:              290

Satellite: NOAA-15
Catalog number: 25338
Epoch time:      07220.91626973
Element set:    0108
Inclination:      098.5337 deg
RA of node:       216.1192 deg
Eccentricity:    0.0009655
Arg of perigee:   232.9454 deg
Mean anomaly:     127.0845 deg
Mean motion:   14.24659035 rev/day
Decay rate:       -5.0e-08 rev/day^2
Epoch rev:           48019
Checksum:              307

Satellite: RESURS
Catalog number: 25394
Epoch time:      07221.67465344
Element set:     707
Inclination:      098.4356 deg
RA of node:       274.0775 deg
Eccentricity:    0.0002378
Arg of perigee:   046.3334 deg
Mean anomaly:     313.8037 deg
Mean motion:   14.24142565 rev/day
Decay rate:       -8.0e-08 rev/day^2
Epoch rev:           47196
Checksum:              304

Satellite: FENGYUN1
Catalog number: 25730
Epoch time:      07220.52619934
Element set:     193
Inclination:      098.6904 deg
RA of node:       202.4141 deg
Eccentricity:    0.0020018
Arg of perigee:   345.1844 deg
Mean anomaly:     014.8876 deg
Mean motion:   14.07572009 rev/day
Decay rate:       4.63e-06 rev/day^2
Epoch rev:           42483
Checksum:              283

Satellite: OKEAN-0
Catalog number: 25860
Epoch time:      07220.52161649
Element set:    0127
Inclination:      097.7322 deg
RA of node:       220.3284 deg
Eccentricity:    0.0000879
Arg of perigee:   102.3912 deg
Mean anomaly:     257.7393 deg
Mean motion:   14.73466943 rev/day
Decay rate:        1.9e-07 rev/day^2
Epoch rev:           43320
Checksum:              285

Satellite: NOAA-16
Catalog number: 26536
Epoch time:      07220.53953732
Element set:    0535
Inclination:      099.1197 deg
RA of node:       198.4014 deg
Eccentricity:    0.0011205
Arg of perigee:   030.4657 deg
Mean anomaly:     329.7140 deg
Mean motion:   14.12444608 rev/day
Decay rate:       -4.5e-07 rev/day^2
Epoch rev:           35449
Checksum:              293

Satellite: NOAA-17
Catalog number: 27453
Epoch time:      07220.86974294
Element set:    0544
Inclination:      098.5775 deg
RA of node:       288.9020 deg
Eccentricity:    0.0010748
Arg of perigee:   302.8479 deg
Mean anomaly:     057.1666 deg
Mean motion:   14.23899664 rev/day
Decay rate:        8.5e-07 rev/day^2
Epoch rev:           26621
Checksum:              349

Satellite: NOAA-18
Catalog number: 28654
Epoch time:      07220.93741271
Element set:    0074
Inclination:      098.8283 deg
RA of node:       161.3398 deg
Eccentricity:    0.0015093
Arg of perigee:   116.5604 deg
Mean anomaly:     243.7102 deg
Mean motion:   14.11084779 rev/day
Decay rate:       -2.7e-07 rev/day^2
Epoch rev:           11429
Checksum:              299

/EX
SB KEPS @ AMSAT  $ORB07221.M
Orbital Elements  07221.MISC

HR AMSAT ORBITAL ELEMENTS FOR MANNED AND MISCELLANEOUS SATELLITES
FROM WA5QGD FORT WORTH,TX August 9, 2007
Send Subscribe/unsubscribe to KEPS at 
http://www.amsat.org/mailman/listinfo/keps
BID: ORB07221.M
TO ALL RADIO AMATEURS BT

Satellite: HUBBLE
Catalog number: 20580
Epoch time:      07220.29621612
Element set:    0934
Inclination:      028.4679 deg
RA of node:       210.3201 deg
Eccentricity:    0.0003551
Arg of perigee:   287.0360 deg
Mean anomaly:     072.9842 deg
Mean motion:   15.00266549 rev/day
Decay rate:       2.75e-06 rev/day^2
Epoch rev:           74779
Checksum:              283

Satellite: UARS
Catalog number: 21701
Epoch time:      07221.73433225
Element set:     137
Inclination:      056.9750 deg
RA of node:       081.4788 deg
Eccentricity:    0.0085735
Arg of perigee:   297.2772 deg
Mean anomaly:     061.9572 deg
Mean motion:   15.48618345 rev/day
Decay rate:      2.071e-05 rev/day^2
Epoch rev:           87404
Checksum:              311

Satellite: PO-34
Catalog number: 25520
Epoch time:      07220.93680680
Element set:    0798
Inclination:      028.4599 deg
RA of node:       115.6955 deg
Eccentricity:    0.0005587
Arg of perigee:   114.2828 deg
Mean anomaly:     245.8349 deg
Mean motion:   15.17030851 rev/day
Decay rate:       3.09e-06 rev/day^2
Epoch rev:           48554
Checksum:              330

Satellite: ISS
Catalog number: 25544
Epoch time:      07221.88994881
Element set:     750
Inclination:      051.6327 deg
RA of node:       186.5423 deg
Eccentricity:    0.0008301
Arg of perigee:   221.6349 deg
Mean anomaly:     182.7599 deg
Mean motion:   15.76169438 rev/day
Decay rate:     1.0652e-04 rev/day^2
Epoch rev:           49925
Checksum:              332

Satellite: OO-38
Catalog number: 26063
Epoch time:      07220.57267326
Element set:    0981
Inclination:      100.2283 deg
RA of node:       232.8731 deg
Eccentricity:    0.0037173
Arg of perigee:   012.9886 deg
Mean anomaly:     347.2242 deg
Mean motion:   14.35812079 rev/day
Decay rate:       -3.5e-07 rev/day^2
Epoch rev:           39457
Checksum:              304

Satellite: UWE-1
Catalog number: 28892
Epoch time:      07220.72576737
Element set:    0817
Inclination:      098.1244 deg
RA of node:       116.3127 deg
Eccentricity:    0.0016498
Arg of perigee:   311.4937 deg
Mean anomaly:     048.4876 deg
Mean motion:   14.59528832 rev/day
Decay rate:        5.2e-07 rev/day^2
Epoch rev:           09487
Checksum:              336

